Startseite
Über Mich
AHP4
Galerie
Sehschlangen
Tourenbuch
Bookmarks
Elektronik
Bewertung
Geschichten
[Tagesmessung] [Jahreswerte] [Information]

Messwerte vom 04.04.2022

Die letzten Messwerte von 23:58:47 Uhr:
KategorieMesswert
Temperatur [°C]6
Luftdruck [mBar]984
Sonneneinstrahlung0
Wind [km/h]1 aus Süd
Niederschlag [l/m²]0
rel.Luftfeucht.96.6%
CO2 [ppm]789

Diagramme
Messwerte vom 04.04.2022
Tagesaggregation
KategorieMinimumMaximumSchnittSumme
Temperatur [°C]063.2833
Luftdruck [mBar]9831002990.9688
Sonneneinstrahlung229104.2833
Wind [km/h]64
rF [%]62.296.690.23
Niederschlag [l/m²]4.3775
CO2 [ppm]403840758.8
Einordnung alsKalter Tag

Messungen an benachbarten Tagen: Zur Jahresaggregation 2022
Tabelle aller Messwerte
UhrzeitTemperatur [°C]Luftdruck [mBar]SonneWind [km/h]RichtungRegen [l/m²]rF [%]CO2 [ppm]
00:01:46 1 1002 0 1 SW 0 95 754
00:04:48 1 1002 0 0 S 0 94.9 756
00:07:46 1 1001 0 3 SW 0 94.9 753
00:10:46 1 1002 0 0 S 0 95.1 752
00:13:44 1 1002 0 1 S 0 95.4 743
00:16:46 1 1002 0 3 S 0 95.6 743
00:19:47 1 1002 0 5 SO 0 95.8 751
00:22:48 1 1002 0 3 S 0 95.7 758
00:25:48 1 1002 0 3 S 0 95.7 757
00:28:47 1 1002 0 6 SW 0 95.8 758
00:31:47 1 1002 0 2 SO 0 96 762
00:34:47 1 1001 0 1 SW 0 95.9 756
00:37:46 1 1002 0 2 S 0 96.1 759
00:40:47 1 1001 0 3 NW 0 96.4 756
00:43:47 1 1001 0 3 SO 0 96.5 757
00:46:46 1 1002 0 2 SO 0 96.5 758
00:49:47 1 1001 0 3 SO 0 96.5 759
00:52:47 1 1001 0 0 S 0 96.5 756
00:55:50 1 1000 0 0 NW 0 96.5 748
00:58:45 1 1000 0 1 O 0 96.5 751
01:01:47 0 1001 0 0 S 0 96.4 747
01:04:46 0 1001 0 2 S 0 96.4 759
01:07:48 0 1001 0 0 SO 0 96.6 759
01:10:47 0 1001 0 4 W 0 96.6 764
01:13:45 0 1000 0 2 S 0 96.6 761
01:16:49 0 1001 0 17 SO 0 96.6 767
01:19:47 0 1000 0 2 0 96.6 764
01:22:47 0 1001 0 2 W 0 96.6 759
01:25:46 0 1000 0 1 S 0 96.6 759
01:28:46 0 1000 0 2 S 0 96.6 756
01:31:47 0 1000 0 0 SO 0 96.6 759
01:34:47 0 1002 0 2 W 0 96.6 765
01:37:47 0 1000 0 0 SW 0 96.6 763
01:40:46 0 1001 0 0 S 0 96.6 760
01:43:47 0 1000 0 3 SO 0 96.6 756
01:46:49 0 1000 0 2 SO 0 96.6 758
01:49:46 1 1001 0 2 SW 0 96.6 759
01:52:47 1 1000 0 3 S 0 96.6 761
01:55:46 1 1001 0 1 SW 0 96.6 767
01:58:48 1 1000 0 0 SW 0 96.6 765
02:01:46 1 1001 0 1 O 0 96.6 768
02:04:46 1 1001 0 1 S 0 96.6 764
02:07:48 1 999 0 2 SW 0 96.6 772
02:10:47 1 1000 0 2 SW 0 96.6 773
02:13:48 1 1000 0 1 S 0 96.6 775
02:16:46 1 999 0 1 S 0 96.6 767
02:19:46 1 1000 0 0 SO 0 96.6 767
02:22:48 1 999 0 2 SO 0 96.6 765
02:25:48 1 999 0 1 NO 0 96.6 765
02:28:46 1 1000 0 4 S 0 96.6 769
02:31:50 1 1000 0 2 W 0 96.6 764
02:34:46 0 999 0 1 S 0 96.6 764
02:37:47 0 1000 0 0 W 0 96.6 761
02:40:47 0 999 0 1 SO 0 96.6 764
02:43:45 0 999 0 3 S 0 96.6 759
02:46:47 0 999 0 0 SW 0 96.6 758
02:49:46 0 999 0 2 W 0 96.6 764
02:52:46 0 999 0 1 SO 0 96.6 767
02:55:45 0 999 0 3 S 0 96.6 761
02:58:48 0 999 0 3 SW 0 96.6 759
03:01:48 1 999 0 3 SW 0 96.6 759
03:04:47 1 999 0 2 SO 0 96.6 761
03:07:48 1 999 0 4 SW 0 96.6 765
03:10:45 1 999 0 4 S 0 96.6 759
03:13:46 1 998 0 2 N 0 96.6 756
03:16:47 1 999 0 0 SW 0 96.6 759
03:19:47 1 999 0 2 SO 0 96.6 768
03:22:46 1 999 0 0 W 0 96.6 768
03:25:49 1 999 0 2 SW 0 96.6 773
03:28:47 1 999 0 2 SO 0 96.6 770
03:31:47 1 999 0 3 S 0 96.6 771
03:34:46 1 999 0 1 S 0 96.6 774
03:37:47 1 998 0 3 SW 0 96.6 770
03:40:46 1 998 0 3 SW 0 96.6 771
03:43:48 1 999 0 2 SW 0 96.6 774
03:46:48 1 998 0 5 SW 0 96.6 773
03:49:47 1 998 0 1 W 0 96.6 771
03:52:47 1 998 0 2 NO 0 96.6 769
03:55:46 1 998 0 4 SW 0 96.6 768
03:58:49 1 998 0 2 SW 0 96.6 767
04:01:46 1 998 0 3 SO 0 96.6 773
04:04:44 1 998 0 2 S 0 96.6 776
04:07:47 1 999 0 2 SW 0 96.5 773
04:10:45 1 999 0 2 S 0 96.4 777
04:13:47 1 998 0 2 SW 0 96.5 779
04:16:44 1 999 0 4 S 0 96.5 772
04:19:48 1 998 0 2 NO 0 96.5 772
04:22:46 1 999 0 4 SW 0 96.4 774
04:25:47 1 998 0 0 SO 0 96.4 777
04:28:47 1 998 0 2 SW 0 96.5 782
04:31:48 1 998 0 3 SW 0 96.4 780
04:34:45 1 998 0 3 S 0 96.4 782
04:37:46 1 998 0 5 SO 0 96.3 780
04:40:46 1 998 0 3 NW 0 96.3 780
04:43:45 1 998 0 3 O 0 96.3 773
04:46:45 1 998 0 2 S 0 96.2 769
04:49:46 1 998 0 3 W 0 96.1 770
04:52:46 1 998 0 2 SW 0 96 773
04:55:47 1 998 0 2 SW 0 96 776
04:58:46 1 998 0 2 O 0 96 775
05:01:44 1 998 0 2 S 0 96 773
05:04:47 1 998 0 3 SW 0 95.9 771
05:07:45 1 998 0 5 S 0 95.9 774
05:10:47 1 998 0 3 S 0 95.8 775
05:13:46 1 998 0 2 SW 0 95.8 781
05:16:46 1 998 0 6 SW 0 95.8 781
05:19:45 1 998 0 3 SO 0 95.7 780
05:22:46 1 997 0 4 W 0 95.6 771
05:25:44 1 998 0 4 S 0 95.7 773
05:28:45 1 998 0 2 SW 0 95.7 780
05:31:46 1 998 0 6 SW 0 95.6 776
05:34:45 1 998 0 2 W 0 95.6 782
05:37:46 1 998 0 9 SO 0 95.7 775
05:40:48 1 998 0 3 S 0 95.8 782
05:43:49 1 998 0 4 SW 0 95.8 778
05:46:48 1 998 0 2 SO 0 95.7 777
05:49:46 1 997 0 4 S 0 95.5 780
05:52:45 1 997 0 1 NW 0 95.4 780
05:55:45 1 997 0 3 S 0 95.2 783
05:58:46 1 996 0 4 0 95.2 776
06:01:47 1 997 0 3 O 0 95.2 779
06:04:46 1 996 0 2 S 0 95.2 779
06:07:46 1 997 0 2 S 0 95.3 796
06:10:47 1 997 0 2 SW 0 95.3 800
06:13:46 1 996 0 3 SO 0 95.2 785
06:16:48 1 997 0 2 SW 0 95.2 773
06:19:46 1 996 0 3 SO 0 95.5 780
06:22:46 1 996 3 4 SW 0 95.7 779
06:25:45 1 996 5 2 SW 0 95.7 790
06:28:46 1 996 8 5 SO 0 95.7 791
06:31:46 1 996 13 2 SO 0 95.6 797
06:34:47 1 997 20 2 SO 0 95.3 794
06:37:47 1 996 27 6 SW 0 95.2 788
06:40:49 1 996 36 3 SO 0 95.1 790
06:43:45 1 996 45 3 W 0 95.1 796
06:46:46 1 996 54 7 SW 0 95 800
06:49:47 1 996 64 4 SW 0 94.8 788
06:52:47 1 996 74 3 SW 0 94.8 788
06:55:48 1 996 85 3 SW 0 94.7 803
06:58:45 1 995 94 2 N 0 94.4 803
07:01:48 1 995 103 2 SW 0 94.3 801
07:04:45 1 995 110 4 S 0 94.1 793
07:07:45 1 996 118 9 S 0 93.9 785
07:10:48 1 996 125 3 S 0 93.6 780
07:13:47 1 995 131 1 0 93.4 788
07:16:47 1 995 137 3 SO 0 93.2 785
07:19:49 1 995 143 2 SO 0 93 788
07:22:48 1 995 146 4 SW 0 93 785
07:25:47 1 995 150 4 W 0 93 773
07:28:46 1 995 155 16 0 92.8 746
07:31:48 1 995 158 2 SO 0 92.6 735
07:34:46 2 995 161 0 S 0 92.4 734
07:37:48 2 995 164 6 SO 0 92.1 735
07:40:47 2 995 166 5 S 0 91.7 729
07:43:48 2 995 169 1 S 0 91.1 726
07:46:46 2 995 171 4 S 0 90.8 726
07:49:48 2 995 175 3 W 0 90.6 743
07:52:46 2 995 179 1 S 0 90.2 748
07:55:49 2 995 183 3 SW 0 90 753
07:58:50 2 995 187 0 SO 0 89.5 752
08:01:49 2 995 188 1 SW 0 89 750
08:04:47 2 995 189 8 S 0 88.7 756
08:07:47 2 995 190 3 S 0 88 759
08:10:46 2 995 190 9 S 0 87.7 762
08:13:49 2 995 192 7 SW 0 87.3 758
08:16:46 2 995 194 2 S 0 87 759
08:19:47 3 995 196 4 S 0 86.5 771
08:22:48 3 995 198 3 SW 0 86.1 776
08:25:49 3 995 200 5 SO 0 85.5 778
08:28:52 3 995 203 5 S 0 85.1 773
08:31:48 3 995 204 7 SO 0 84.4 773
08:34:47 3 995 204 7 S 0 84.2 770
08:37:47 3 995 204 4 SW 0 84 765
08:40:46 3 995 206 4 S 0 83.6 764
08:43:50 3 995 208 6 S 0 82.7 759
08:46:48 3 995 210 6 SW 0 82.1 762
08:49:49 3 995 211 4 SO 0 81.5 765
08:52:51 4 995 209 4 SW 0 80.7 771
08:55:51 4 995 209 10 SW 0 80.2 776
08:58:51 4 995 209 5 SO 0 79.7 777
09:01:45 4 994 211 6 S 0 79.4 782
09:04:47 4 994 213 9 0 78.8 781
09:07:48 4 995 213 3 S 0 78.3 782
09:10:48 4 995 214 4 S 0 77.4 784
09:13:46 4 994 214 4 SW 0 77 796
09:16:45 4 995 215 6 S 0 76.4 794
09:19:52 4 994 215 21 SO 0 74.9 794
09:22:48 4 994 214 9 S 0 74.6 791
09:25:50 4 994 211 5 NW 0 74.2 801
09:28:47 4 994 210 12 O 0 74.1 800
09:31:50 4 994 209 8 SW 0 74.2 803
09:34:47 4 993 207 5 SW 0 74 805
09:37:46 4 994 207 7 S 0 73.1 803
09:40:49 4 994 210 7 SW 0 73 803
09:43:47 4 994 212 7 SO 0 73.4 814
09:46:46 4 993 215 6 W 0 73.4 826
09:49:47 4 994 217 3 W 0 73.2 828
09:52:47 4 994 219 6 S 0 72.6 824
09:55:47 5 993 219 8 S 0 72 815
09:58:46 5 994 219 6 O 0 71.2 811
10:01:48 5 993 220 12 SW 0 70.9 810
10:04:48 5 993 221 8 SO 0 69.5 816
10:07:49 5 994 222 9 SW 0 69.7 811
10:10:47 5 993 222 11 S 0 68.7 818
10:13:44 5 994 220 5 S 0 68.9 814
10:16:48 5 993 220 11 S 0 68.3 809
10:19:45 5 994 221 17 SO 0 68.1 814
10:22:45 5 993 221 11 0 67.9 814
10:25:47 5 993 221 5 SW 0 68.4 821
10:28:47 5 993 219 7 W 0 67.4 820
10:31:50 5 993 218 7 SW 0 67.4 819
10:34:50 5 993 217 5 NW 0 67.3 822
10:37:50 5 993 218 6 NW 0 67 824
10:40:48 5 992 219 15 SW 0 67.1 829
10:43:46 5 993 220 8 N 0 66.7 823
10:46:48 5 992 219 9 SO 0 67.4 817
10:49:48 5 992 220 10 S 0 66.6 818
10:52:50 5 992 221 6 SO 0 66.8 810
10:55:45 5 992 221 5 S 0 67.2 811
10:58:54 6 992 222 9 NW 0 66.6 814
11:01:53 6 992 222 7 SW 0 66.5 820
11:04:48 6 991 222 4 W 0 66.4 823
11:07:51 6 991 222 11 S 0 66.5 811
11:10:49 6 991 222 10 S 0 66.6 805
11:13:47 6 992 223 11 S 0 66.7 811
11:16:49 6 991 222 16 NW 0 66.3 806
11:19:48 6 991 221 10 SW 0 65.7 809
11:22:45 6 991 221 7 S 0 65.1 814
11:25:51 6 991 222 13 W 0 64.7 822
11:28:51 6 991 220 14 SW 0 65 816
11:31:46 6 991 221 11 SO 0 65.6 814
11:34:46 6 991 221 6 S 0 65.6 808
11:37:51 6 991 222 16 SO 0 65.6 805
11:40:52 6 991 225 9 SO 0 64.2 811
11:43:47 6 991 223 4 O 0 63.6 811
11:46:46 6 991 223 17 O 0 63.9 801
11:49:48 6 991 222 17 S 0 63.9 787
11:52:46 6 991 223 14 O 0 64.5 752
11:55:47 6 991 224 8 SO 0 64.4 727
11:58:46 6 991 223 9 SW 0 64.4 735
12:01:47 6 991 224 11 W 0 64.6 750
12:04:46 6 991 225 11 SW 0 64.1 759
12:07:49 6 991 225 11 SW 0 63.9 762
12:10:48 6 991 220 11 W 0 63.9 767
12:13:48 6 991 225 12 SW 0 63.7 644
12:16:49 6 991 227 14 SO 0 63.6 615
12:19:50 6 991 227 9 SW 0 64.5 697
12:22:49 6 990 225 12 SO 0 64.2 732
12:25:49 6 991 227 15 SW 0 63.4 727
12:28:48 6 989 227 4 SW 0 63 720
12:31:49 6 990 226 10 SW 0 62.8 703
12:34:48 6 989 225 13 SO 0 62.2 706
12:37:49 6 990 229 11 0 62.6 721
12:40:50 6 989 226 7 SW 0 63.1 729
12:43:49 6 989 223 17 SW 0 63 723
12:46:45 6 990 223 7 N 0 63.1 715
12:49:50 6 989 219 27 SO 0 65 712
12:52:48 6 989 220 6 SO 0 67.8 724
12:55:48 5 989 220 14 SO 0 69.6 727
12:58:47 5 989 220 12 S 0 72 725
13:01:46 5 989 223 5 SO 0 74 720
13:04:48 5 989 223 8 SW 0 75.4 726
13:07:48 5 989 225 6 SO 0 76.3 730
13:10:47 5 989 226 11 S 0 77 752
13:13:48 5 989 223 18 W 0 76.8 748
13:16:49 5 988 222 11 SW 0 77.7 756
13:19:48 5 988 220 12 S 0 78.6 754
13:22:48 5 989 221 6 SW 0 78.3 764
13:25:48 5 988 216 12 SO 0 79.3 762
13:28:46 5 989 221 8 S 0 80 766
13:31:49 5 988 219 7 W 0 80 762
13:34:47 4 988 215 13 S 0 81.2 763
13:37:49 4 988 214 11 SO 0 82 765
13:40:48 4 988 210 15 O 0 82.6 780
13:43:49 4 988 210 14 SO 0 83.3 786
13:46:50 4 988 212 14 SW 0 84.5 779
13:49:47 4 988 211 11 W 0 85.8 779
13:52:47 4 988 205 8 SO 0 86.6 786
13:55:51 4 987 208 10 SW 0 87.5 779
13:58:46 4 988 210 9 S 0 88 774
14:01:48 4 988 212 12 SO 0 88.5 773
14:04:47 4 987 203 8 N 0.2575 89.5 773
14:07:50 4 987 199 14 SW 0 90.5 782
14:10:46 4 987 210 10 SW 0 90.7 797
14:13:47 3 987 212 10 S 0 91.3 795
14:16:47 4 987 210 1 SO 0 92.2 797
14:19:48 4 987 206 10 O 0 92.7 793
14:22:48 4 987 202 6 SO 0 92.6 797
14:25:47 4 987 201 12 SO 0 92.5 803
14:28:48 3 987 208 11 NO 0 92.6 808
14:31:47 4 987 209 5 W 0.2575 93.2 799
14:34:49 4 987 210 12 SW 0 93.9 795
14:37:49 4 987 207 7 SW 0 94.1 794
14:40:51 3 987 202 13 SW 0 94.3 799
14:43:50 3 987 200 13 SW 0.2575 94.5 797
14:46:47 3 988 204 6 SW 0 94.9 806
14:49:48 3 987 204 5 SO 0 95.9 811
14:52:48 3 987 205 14 SO 0.2575 96.5 814
14:55:48 3 987 203 5 NW 0 96.5 802
14:58:48 3 987 209 14 NO 0 96.6 800
15:01:48 3 987 210 17 SO 0 96.6 805
15:04:48 3 987 205 11 SW 0.2575 96.6 814
15:07:50 3 987 202 10 S 0 96.6 803
15:10:48 3 987 206 16 S 0 96.6 782
15:13:49 3 987 208 8 SW 0 96.6 782
15:16:48 3 987 205 13 S 0.2575 96.6 800
15:19:46 3 987 204 5 S 0 96.6 820
15:22:49 3 986 201 7 SW 0 96.6 811
15:25:50 3 986 203 8 SW 0 96.6 805
15:28:48 3 986 195 12 N 0.2575 96.6 808
15:31:48 3 986 194 4 SO 0 96.6 817
15:34:49 3 986 195 6 SO 0 96.6 817
15:37:49 3 987 197 9 S 0 96.6 822
15:40:47 3 986 198 16 N 0 96.6 822
15:43:48 3 985 197 7 SW 0.2575 96.6 826
15:46:47 3 986 202 5 SW 0 96.6 828
15:49:46 3 986 204 7 S 0 96.6 826
15:52:48 3 986 203 21 S 0 96.6 824
15:55:45 3 986 213 15 S 0 96.6 822
15:58:47 3 986 200 12 S 0 96.6 824
16:01:48 3 985 206 13 S 0 96.6 827
16:04:48 3 985 209 7 SW 0 96.6 835
16:07:50 3 986 204 7 SW 0 96.6 828
16:10:48 3 985 197 8 SO 0 96.6 823
16:13:46 3 985 191 3 S 0 96.6 817
16:16:48 3 984 199 6 S 0.2575 96.6 823
16:19:49 3 985 194 10 SW 0 96.6 830
16:22:48 3 985 194 11 SO 0 96.6 836
16:25:47 3 985 192 10 O 0 96.6 835
16:28:46 3 986 201 7 0 96.6 829
16:31:49 4 985 203 10 SW 0 96.6 831
16:34:46 4 984 195 8 S 0 96.6 832
16:37:48 4 984 198 17 SW 0 96.6 826
16:40:48 4 984 195 14 S 0 96.6 826
16:43:48 4 984 190 13 S 0 96.6 826
16:46:47 4 984 189 8 S 0.2575 96.6 840
16:49:51 4 984 192 3 SW 0 96.6 831
16:52:48 4 984 203 4 NW 0 96.6 820
16:55:49 4 984 196 15 NO 0 96.6 825
16:58:49 4 984 199 1 NW 0 96.6 836
17:01:47 4 984 197 9 S 0 96.6 838
17:04:47 4 984 193 4 NO 0.2575 96.6 832
17:07:48 4 984 190 6 SO 0 96.6 829
17:10:48 4 984 178 3 NO 0 96.6 831
17:13:48 4 984 180 5 S 0 96.6 826
17:16:48 4 984 185 12 S 0 96.6 820
17:19:49 4 984 201 13 S 0 96.6 808
17:22:50 4 984 192 12 SO 0 96.6 805
17:25:49 4 984 187 14 S 0.2575 96.6 805
17:28:49 4 984 183 10 S 0 96.6 803
17:31:54 4 984 175 8 SO 0 96.6 800
17:34:49 4 984 186 20 SW 0 96.6 780
17:37:47 4 984 182 4 SW 0 96.6 780
17:40:45 4 984 184 17 S 0.2575 96.6 774
17:43:45 4 984 174 11 S 0 96.6 774
17:46:46 4 984 170 14 SW 0 96.6 764
17:49:47 4 984 180 11 S 0 96.6 765
17:52:49 4 984 189 12 W 0 96.6 759
17:55:48 4 984 184 10 SW 0.2575 96.6 757
17:58:47 4 984 178 7 S 0 96.6 746
18:01:49 4 984 166 3 S 0 96.6 738
18:04:46 4 984 176 6 S 0 96.6 733
18:07:48 4 984 176 7 SO 0 96.6 732
18:10:48 4 984 174 9 O 0 96.6 730
18:13:48 4 984 168 16 O 0 96.6 729
18:16:48 4 984 176 10 S 0 96.6 720
18:19:49 4 983 167 11 SW 0 96.6 723
18:22:48 4 984 153 11 SO 0 96.6 726
18:25:48 4 984 105 4 S 0 96.6 709
18:28:47 4 984 162 9 SW 0 96.6 403
18:31:47 4 984 170 3 S 0 96.6 443
18:34:47 4 984 156 6 W 0.2575 96.6 559
18:37:47 4 984 156 5 W 0 96.6 575
18:40:46 4 984 140 4 SW 0 96.6 574
18:43:48 4 984 141 12 NW 0 96.6 557
18:46:47 4 983 133 17 SO 0 96.6 577
18:49:49 4 984 123 4 SW 0 96.6 568
18:52:49 4 984 129 5 W 0 96.6 567
18:55:48 4 983 150 3 O 0 96.6 577
18:58:48 4 984 126 8 W 0 96.6 575
19:01:48 4 984 120 11 S 0 96.6 580
19:04:48 4 984 131 6 SO 0 96.6 585
19:07:49 4 984 138 11 N 0 96.6 587
19:10:47 4 984 141 9 S 0 96.6 600
19:13:50 4 984 119 3 SW 0 96.6 612
19:16:47 4 984 108 3 SO 0.2575 96.6 617
19:19:46 4 984 93 4 W 0 96.6 615
19:22:47 4 984 95 5 W 0 96.6 618
19:25:44 4 984 107 5 O 0 96.6 624
19:28:46 4 984 110 4 W 0 96.6 627
19:31:46 4 984 93 4 W 0 96.6 635
19:34:48 4 984 85 4 NO 0 96.6 629
19:37:47 4 984 71 19 SW 0 96.6 629
19:40:46 4 983 54 7 W 0 96.6 623
19:43:49 4 983 61 11 SW 0 96.6 636
19:46:45 4 984 46 8 O 0 96.6 642
19:49:47 4 984 37 13 SW 0 96.6 636
19:52:48 4 983 30 11 N 0 96.6 641
19:55:46 4 983 22 7 N 0 96.6 639
19:58:49 4 984 21 9 SW 0 96.6 644
20:01:47 4 983 13 20 W 0 96.6 644
20:04:48 5 984 9 10 N 0 96.6 656
20:07:46 5 983 7 2 SW 0 96.6 664
20:10:46 5 983 5 9 SW 0 96.6 662
20:13:47 5 983 0 12 SW 0 96.6 651
20:16:48 5 983 0 7 SO 0 96.6 650
20:19:47 5 984 0 10 S 0 96.6 661
20:22:47 5 983 0 9 W 0 96.6 669
20:25:45 5 984 0 9 O 0 96.6 672
20:28:48 5 984 0 4 S 0 96.6 671
20:31:48 5 983 0 6 SW 0 96.6 666
20:34:49 5 984 0 15 SO 0 96.6 668
20:37:47 5 983 0 11 N 0 96.6 662
20:40:48 5 983 0 19 SO 0 96.6 667
20:43:48 5 984 0 64 W 0 96.6 677
20:46:48 5 983 0 20 SW 0 96.6 685
20:49:48 5 983 0 4 SO 0 96.6 685
20:52:48 5 983 0 10 W 0 96.6 690
20:55:46 5 983 0 16 S 0 96.6 696
20:58:47 5 983 0 24 SW 0 96.6 705
21:01:48 5 984 0 7 S 0 96.6 706
21:04:46 5 984 0 13 S 0 96.6 705
21:07:48 5 983 0 25 SO 0 96.6 709
21:10:47 5 984 0 9 SO 0 96.6 715
21:13:45 5 984 0 4 S 0 96.6 708
21:16:46 5 983 0 4 SO 0 96.6 715
21:19:48 5 984 0 10 SW 0 96.6 714
21:22:47 5 984 0 9 NW 0 96.6 715
21:25:45 5 983 0 9 S 0 96.6 717
21:28:46 5 984 0 4 S 0 96.6 733
21:31:47 5 984 0 5 SW 0 96.6 725
21:34:44 5 984 0 20 N 0 96.6 733
21:37:47 5 984 0 9 SW 0 96.6 729
21:40:46 5 984 0 6 NO 0 96.6 735
21:43:47 5 984 0 12 W 0 96.6 744
21:46:46 5 984 0 8 SO 0 96.6 736
21:49:49 5 984 0 2 S 0 96.6 735
21:52:46 5 984 0 6 SW 0 96.6 733
21:55:48 5 984 0 10 S 0 96.6 732
21:58:46 5 984 0 14 NW 0 96.6 735
22:01:48 5 984 0 6 SO 0 96.6 743
22:04:46 5 984 0 8 W 0 96.6 738
22:07:49 5 984 0 9 SO 0 96.6 728
22:10:47 5 983 0 11 SW 0 96.6 735
22:13:46 5 984 0 5 S 0 96.6 738
22:16:47 5 983 0 12 S 0 96.6 743
22:19:48 5 984 0 10 W 0 96.6 744
22:22:46 5 984 0 3 S 0 96.6 741
22:25:47 5 984 0 7 SO 0 96.6 741
22:28:47 5 984 0 6 NO 0 96.6 749
22:31:46 5 984 0 6 SW 0 96.6 747
22:34:49 5 984 0 8 SO 0 96.6 750
22:37:46 5 984 0 2 SW 0 96.6 748
22:40:48 5 984 0 22 SO 0 96.6 752
22:43:46 5 984 0 3 NW 0 96.6 755
22:46:46 5 984 0 6 SO 0 96.6 753
22:49:48 5 984 0 12 SW 0 96.6 753
22:52:46 6 983 0 17 S 0 96.6 747
22:55:46 6 984 0 2 0 96.6 755
22:58:46 6 984 0 6 S 0 96.6 760
23:01:50 6 984 0 8 NW 0 96.6 760
23:04:48 6 984 0 4 SW 0 96.6 764
23:07:47 6 983 0 2 W 0 96.6 773
23:10:48 6 984 0 8 SW 0 96.6 768
23:13:47 6 984 0 3 S 0 96.6 780
23:16:42 6 984 0 6 S 0 96.6 775
23:19:49 6 984 0 20 W 0 96.6 781
23:22:48 6 984 0 26 S 0 96.6 785
23:25:46 6 984 0 20 S 0 96.6 780
23:28:47 6 984 0 8 W 0.2575 96.6 776
23:31:48 6 984 0 5 SW 0 96.6 770
23:34:45 6 984 0 13 0 96.6 773
23:37:46 6 984 0 12 S 0 96.6 771
23:40:46 6 984 0 5 SW 0 96.6 772
23:43:48 6 984 0 9 SO 0 96.6 783
23:46:45 6 984 0 7 SO 0 96.6 778
23:49:48 6 984 0 1 SW 0 96.6 782
23:52:47 6 984 0 8 SO 0 96.6 785
23:55:47 6 984 0 11 SW 0 96.6 783
23:58:47 6 984 0 1 S 0 96.6 789

Letzte Änderung : 04-Jan-2022
Copyright Jens Köhler, Wolfsburg, Obere Dorfstraße 10d